This demonstration page uses our WeatherBlox Daily Observations layout. Learn more.

Left ArrowRight Arrow

40.92945, -100.16068

Hourly Observations for March 4, 2021

Temp ( °F °C ) Dew Point ( °F °C ) Humidity (%) Winds ( mph kmh ) Pressure ( in mb ) Visibility ( mi km ) Precip ( " mm )
12:15 am 00:15 Clear 35 1.6 31 -0.5 86 86 ENE 3 6 30.13 1020 7 11 N/A
12:35 am 00:35 Clear 34 1.1 31 -0.8 87 87 NE 5 7 30.14 1021 10 16 N/A
12:55 am 00:55 Clear 34 1.1 31 -0.7 88 88 ENE 5 7 30.15 1021 10 16 N/A
1:15 am 01:15 Clear 34 0.9 29 -1.5 84 84 ENE 3 6 30.14 1021 10 16 N/A
1:35 am 01:35 Clear 32 0.2 30 -1.3 90 90 ENE 3 6 30.16 1021 10 16 N/A
1:55 am 01:55 Clear 33 0.3 29 -1.8 86 86 N N/A 30.15 1021 10 16 N/A
2:15 am 02:15 Clear 31 -0.5 28 -2.2 88 88 N N/A 30.16 1021 10 16 N/A
2:35 am 02:35 Clear 31 -0.7 27 -2.6 87 87 N N/A 30.16 1021 10 16 N/A
2:55 am 02:55 Clear 31 -0.8 27 -2.6 88 88 N N/A 30.16 1021 10 16 N/A
3:15 am 03:15 Clear 30 -1 27 -2.6 89 89 NNE 3 6 30.16 1021 10 16 N/A
3:35 am 03:35 Clear 30 -1 28 -2.5 90 90 NNE 3 6 30.16 1021 10 16 N/A
3:55 am 03:55 Clear 29 -1.7 26 -3.1 90 90 NW 3 6 30.17 1022 10 16 N/A
4:15 am 04:15 Clear 29 -1.5 27 -3 90 90 NW 5 7 30.17 1022 10 16 N/A
4:35 am 04:35 Clear 29 -1.5 27 -2.7 92 92 WNW 6 9 30.17 1022 10 16 N/A
4:55 am 04:55 Clear 29 -1.9 27 -3 92 92 W 7 11 30.18 1022 10 16 N/A
5:15 am 05:15 Clear 29 -1.8 26 -3.2 90 90 W 7 11 30.18 1022 10 16 N/A
5:35 am 05:35 Clear 29 -1.8 26 -3.1 91 91 WNW 7 11 30.18 1022 10 16 N/A
5:55 am 05:55 Clear 28 -2 26 -3.5 90 90 WNW 5 7 30.18 1022 10 16 N/A
6:15 am 06:15 Clear 28 -2.3 26 -3.6 91 91 W 6 9 30.18 1022 10 16 N/A
6:35 am 06:35 Clear 28 -2.1 26 -3.5 90 90 N N/A 30.18 1022 10 16 N/A
6:55 am 06:55 Clear 29 -1.7 27 -3 91 91 N N/A 30.16 1021 10 16 N/A
7:15 am 07:15 Sunny 28 -2 26 -3.3 91 91 N N/A 30.17 1022 10 16 N/A
7:35 am 07:35 Sunny 27 -2.6 25 -3.7 92 92 WSW 3 6 30.17 1022 10 16 N/A
7:55 am 07:55 Sunny 30 -1.2 27 -3 88 88 W 6 9 30.16 1021 10 16 N/A
8:15 am 08:15 Sunny 32 -0.1 28 -2 87 87 N N/A 30.16 1021 10 16 N/A
8:35 am 08:35 Sunny 33 0.7 30 -1.2 87 87 NNW 3 6 30.15 1021 10 16 N/A
8:55 am 08:55 Sunny 36 2.3 31 -0.8 80 80 N N/A 30.13 1020 10 16 N/A
9:15 am 09:15 Sunny 38 3.4 31 -0.5 76 76 N N/A 30.12 1020 10 16 N/A
9:35 am 09:35 Sunny 41 4.8 32 undefined 71 71 N N/A 30.11 1020 10 16 N/A
9:55 am 09:55 Sunny 44 6.5 33 0.6 66 66 N N/A 30.09 1019 10 16 N/A
10:15 am 10:15 Sunny 49 9.6 31 -0.3 50 50 ESE 6 9 30.05 1018 10 16 N/A
10:35 am 10:35 Sunny 53 11.5 32 -0.2 45 45 ESE 8 13 30.04 1017 10 16 N/A
10:55 am 10:55 Sunny 55 12.5 33 0.4 44 44 ESE 9 15 30.03 1017 10 16 N/A
11:10 am 11:10 Sunny 56 13.1 32 0.2 41 41 E 10 17 30.01 1016 10 16 N/A
11:35 am 11:35 Sunny 59 15.2 33 0.6 37 37 ESE 12 19 29.98 1015 10 16 N/A
12:15 pm 12:15 Sunny 63 17.4 30 -1.2 28 28 E 17 28 29.95 1014 10 16 N/A
12:35 pm 12:35 Sunny 64 17.8 29 -1.7 27 27 ESE 17 28 29.95 1014 10 16 N/A
12:55 pm 12:55 Sunny 65 18.2 28 -2 25 25 ESE 18 30 29.94 1014 10 16 N/A
1:15 pm 13:15 Sunny 65 18.3 27 -2.8 24 24 ESE 15 24 29.93 1013 10 16 N/A
1:35 pm 13:35 Sunny 65 18.5 27 -2.9 23 23 ESE 16 26 29.93 1013 10 16 N/A
1:55 pm 13:55 Sunny 65 18.4 25 -3.7 22 22 SE 15 24 29.92 1013 10 16 N/A
2:15 pm 14:15 Sunny 65 18.6 28 -2.5 24 24 ESE 14 22 29.91 1013 10 16 N/A
2:35 pm 14:35 Sunny 66 18.7 28 -2.3 24 24 SE 14 22 29.91 1013 10 16 N/A
2:55 pm 14:55 Sunny 66 18.7 28 -2.3 24 24 SE 12 19 29.91 1013 10 16 N/A
3:15 pm 15:15 Sunny 65 18.3 27 -2.9 24 24 ESE 16 26 29.92 1013 10 16 N/A
3:35 pm 15:35 Sunny 63 17.4 26 -3.1 25 25 ESE 15 24 29.92 1013 10 16 N/A
3:55 pm 15:55 Sunny 63 17.4 28 -2.3 26 26 ESE 10 17 29.92 1013 10 16 N/A
4:15 pm 16:15 Sunny 63 17.4 27 -2.6 26 26 ESE 12 19 29.92 1013 10 16 N/A
4:35 pm 16:35 Sunny 63 17.1 30 -1.3 29 29 E 9 15 29.94 1014 10 16 N/A
4:55 pm 16:55 Sunny 62 16.8 30 -1.3 29 29 E 12 19 29.94 1014 10 16 N/A
5:15 pm 17:15 Sunny 61 16.2 30 -1 31 31 E 9 15 29.95 1014 10 16 N/A
5:35 pm 17:35 Sunny 60 15.7 31 -0.6 33 33 E 9 15 29.96 1015 10 16 N/A
5:55 pm 17:55 Sunny 59 15 31 -0.3 35 35 E 9 15 29.98 1015 10 16 N/A
6:15 pm 18:15 Sunny 56 13.5 33 0.3 41 41 ENE 8 13 30.00 1016 10 16 N/A
6:35 pm 18:35 Clear 54 12.3 33 0.5 45 45 ENE 6 9 30.02 1017 10 16 N/A
6:55 pm 18:55 Clear 53 11.8 32 0.2 45 45 ENE 8 13 30.03 1017 10 16 N/A
7:10 pm 19:10 Clear 51 10.8 33 0.7 50 50 ENE 7 11 30.05 1018 10 16 N/A
7:35 pm 19:35 Clear 52 11 33 0.6 49 49 ENE 10 17 30.05 1018 10 16 N/A
7:55 pm 19:55 Clear 51 10.3 33 0.8 52 52 ENE 9 15 30.07 1018 10 16 N/A
8:15 pm 20:15 Clear 50 10.1 34 0.9 53 53 E 12 19 30.08 1019 10 16 N/A
8:35 pm 20:35 Clear 49 9.5 34 1 56 56 ENE 10 17 30.09 1019 10 16 N/A
8:55 pm 20:55 Clear 49 9.3 34 1.2 57 57 ENE 10 17 30.10 1019 10 16 N/A
9:15 pm 21:15 Clear 49 9.3 35 1.5 59 59 ENE 10 17 30.11 1020 10 16 N/A
9:35 pm 21:35 Clear 48 9 34 1.3 59 59 ENE 10 17 30.12 1020 10 16 N/A
9:55 pm 21:55 Clear 47 8.2 35 1.5 63 63 ENE 8 13 30.14 1021 10 16 N/A
10:15 pm 22:15 Clear 46 7.8 34 1.2 63 63 ENE 9 15 30.14 1021 10 16 N/A
10:35 pm 22:35 Clear 46 8 34 1.3 63 63 ENE 10 17 30.15 1021 10 16 N/A
10:55 pm 22:55 Clear 46 8 34 1.3 63 63 ENE 12 19 30.15 1021 10 16 N/A
11:15 pm 23:15 Clear 46 7.7 35 1.7 66 66 ENE 12 19 30.15 1021 10 16 N/A
11:35 pm 23:35 Clear 45 7.2 35 1.7 68 68 ENE 10 17 30.16 1021 10 16 N/A
11:55 pm 23:55 Clear 45 7.1 35 1.7 69 69 ENE 10 17 30.17 1022 10 16 N/A

Powered by AerisWeather